[Iaude] MPEC M51: 2019 EU7 [a=43.82,e=0.09,i=3.2,H=7.47]

mpec at cfa.harvard.edu mpec at cfa.harvard.edu
Tue Jun 25 22:29:07 EDT 2024


M.P.E.C. 2024-M51                                 Issued 2024 June 26, 02:26 UT

     The Minor Planet Electronic Circulars contain information on unusual
         minor planets, routine data on comets and natural satellites,
         and occasional editorial announcements.  They are published
    on behalf of Division F of the International Astronomical Union by the
          Minor Planet Center, Smithsonian Astrophysical Observatory,
                          Cambridge, MA 02138, U.S.A.
			  
             Prepared using the Tamkin Foundation Computer Network

                              MPC at CFA.HARVARD.EDU
            URL https://www.minorplanetcenter.net/    ISSN 1523-6714

                                    2019 EU7                                    


Additional Observations:
     K19E07U 1C2009 01 23.43549111 09 28.30 +08 56 03.2                WEM051T09
     K19E07U 1C2009 01 23.49439511 09 28.13 +08 56 04.3                WEM051T09
     K19E07U 4C2018 03 18.48012 11 50 09.19 +04 31 30.1          23.2 i1EM051T09
     K19E07U 4C2018 03 18.55199 11 50 08.87 +04 31 31.8          22.9 i1EM051T09
     K19E07U 4C2018 03 18.59206 11 50 08.70 +04 31 33.1          22.9 i1EM051T09
     K19E07U 4C2018 04 24.37585 11 47 37.96 +04 46 42.2          23.2 z1EM051T09
     K19E07U 4C2018 04 24.41489 11 47 37.84 +04 46 42.8          22.7 z1EM051T09
     K19E07U 4C2018 04 24.49874 11 47 37.53 +04 46 44.5          23.6 z1EM051T09
     K19E07U 1C2019 02 04.56597211 57 54.56 +03 38 44.4                WEM051T09
     K19E07U 1C2019 02 04.64361911 57 54.32 +03 38 46.1                WEM051T09

Observer details:
T09 Subaru Telescope, Maunakea.  Observers , H. Aihara, Y. AlSayyad, M. Ando,
    R. Armstrong, J. Bosch, E. Egami, H. Furusawa, J. Furusawa, S. Harasawa,
    Y. Harikane, B.-C. Hsieh, H. Ikeda, K. Ito, I. Iwata, T. Kodama, M. Koike,
    M. Kokubo, Y. Komiyama, X. Li, Y. Liang, Y.-T. Lin, R. H. Lupton, N. B.
    Lust, L. A. MacArthur, K. Mawatari, S. Mineo, H. Miyatake, S. Miyazaki, S.
    More, T. Morishima, H. Murayama, K. Nakajima, F. Nakata, A. J. Nishizawa,
    M. Oguri, N. Okabe, Y. Okura, Y. Ono, K. Osato, M. Ouchi, Y.-C. Pan, A. A.
    Plazas Malagon, P. A. Price, S. L. Reed, E. S. Rykoff, T. Shibuya, M.
    Simunovic, M. A. Strauss, K. Sugimori, Y. Suto, N. Suzuki, M. Takada, Y.
    Takagi, T. Takata, S. Takita, M. Tanaka, S. Tang, D. S. Taranu, T. Terai,
    Y. Toba, E. L. Turner, H. Uchiyama, B. Vijarnwannaluk, C. Z. Waters, Y.
    Yamada, N. Yamamoto, T. Yamashita.  Measurers S. Deen, A. Yamauchi.  8.3-m
    Subaru Telescope + CCD, 8.2-m f/2.0 reflector + CCD(HSC).

Orbital elements:
2019 EU7                                                                        
Epoch 2024 Mar. 31.0 TT = JDT 2460400.5                 Alexandersen            
M 304.64829              (2000.0)            P               Q                  
n   0.00339807     Peri.  176.00300     -0.36958363     +0.92768414             
a  43.8174972      Node    72.30071     -0.85405741     -0.31666951             
e   0.0888445      Incl.    3.18982     -0.36605173     -0.19779424             
P 290              H    7.47          G   0.15           U   5                  
Residuals in seconds of arc
090123 T09  0.1-  0.1+    180424 T09  0.2-  0.0     190307 T09  0.2+  0.0
090123 T09  0.1+  0.1-    190204 T09  0.0   0.1+    190307 T09  0.1-  0.0
180318 T09  0.1-  0.3+    190204 T09  0.0   0.0     190307 T09  0.1-  0.1-
180318 T09  0.0   0.1-    190302 T09  0.1-  0.1-    190308 T09  0.2+  0.1+
180318 T09  0.2+  0.0     190302 T09  0.1-  0.1+    190308 T09  0.1-  0.1+
180424 T09  0.1-  0.0     190302 T09  0.0   0.1-    190308 T09  0.2+  0.1+
180424 T09  0.2+  0.1-    190302 T09  0.1-  0.2-

Ephemeris:
2019 EU7                 a,e,i = 43.82, 0.09, 3                  q = 39.9246
Date    TT    R. A. (2000) Decl.     Delta      r    Elong.  Phase     V
2024 05 27    12 15 58.2 +01 31 50  41.3725 41.8444   117.1     1.2    23.8
...
2024 06 11    12 15 41.9 +01 32 25  41.6058 41.8413   102.7     1.4    23.9
...
2024 06 19    12 15 40.9 +01 31 52  41.7371 41.8397    95.1     1.4    23.9
...
2024 06 25    12 15 43.7 +01 31 04  41.8367 41.8384    89.4     1.4    23.9
2024 06 26    12 15 44.5 +01 30 54  41.8533 41.8382    88.5     1.4    23.9
2024 06 27    12 15 45.4 +01 30 43  41.8699 41.8380    87.5     1.4    23.9
...
2024 07 03    12 15 52.3 +01 29 28  41.9692 41.8368    81.8     1.4    23.9
...
2024 07 11    12 16 06.3 +01 27 19  42.0992 41.8351    74.3     1.3    23.9
...
2024 07 26    12 16 46.5 +01 21 51  42.3278 41.8320    60.2     1.2    23.9

M. P. C. Staff               (C) Copyright 2024 MPC           M.P.E.C. 2024-M51





More information about the Iaude mailing list